Theta_e
297 297 297 297 297 297 296 297 298 300 301 300 303 307 308 309 310 309 311 313 310 311 316 314 313 316 317 314 314 313 312 312 311 311 312 311 311 312 312 311 312 312 313 313 313 313 316 316 314 314 314 313 314 313 313 313 313 318 321 318 318 324 324 319 319 323 321 316 313 313 311 313 316 315 315 314 313 321 326 324 327 325 319 320 320 315 320
297 297 297 297 296 297 296 297 298 301 302 301 303 307 309 310 310 310 311 314 312 314 318 319 318 318 314 311 312 312 311 311 311 311 311 310 311 312 312 311 311 312 312 314 313 312 315 316 315 315 315 313 313 313 313 314 314 318 321 318 318 319 319 321 322 322 323 321 320 320 314 313 314 313 314 312 309 316 323 323 328 326 317 316 316 315 319
297 297 297 297 296 296 296 296 298 300 302 302 303 307 309 311 312 310 310 313 313 313 315 317 319 320 315 312 313 312 311 311 311 311 310 310 310 311 311 311 311 311 313 315 314 312 314 315 314 315 316 313 313 313 312 313 314 317 316 314 319 321 323 331 329 317 316 320 321 319 312 311 315 312 311 313 312 314 316 319 326 321 314 316 317 318 323
297 297 297 296 296 296 296 296 297 300 300 301 303 306 309 311 312 310 310 311 311 311 311 310 312 315 313 312 315 314 310 310 311 311 311 309 310 310 309 311 312 312 314 316 315 312 312 314 314 315 316 314 312 312 314 313 313 315 312 311 320 323 320 331 335 324 321 323 319 313 309 310 313 311 311 314 315 315 317 320 321 316 317 322 319 318 321
297 297 296 296 296 295 296 296 297 299 300 300 302 305 307 310 311 310 309 310 310 310 310 309 309 311 311 311 312 311 309 310 311 311 310 309 310 310 309 309 311 312 314 316 314 312 312 313 314 315 315 315 313 311 313 315 314 314 309 308 319 322 314 318 325 322 318 316 312 308 308 309 308 308 311 313 315 318 318 315 313 314 318 320 316 316 318
297 297 297 296 295 295 296 296 297 298 299 299 302 304 305 307 308 307 308 310 312 312 311 311 309 309 311 310 309 309 309 309 309 310 310 308 309 311 310 308 308 308 310 313 312 312 313 314 313 313 314 317 317 314 312 313 312 311 310 311 320 324 316 311 313 313 312 311 310 310 309 308 308 309 310 311 314 316 314 310 311 313 314 313 311 313 314
297 297 297 296 295 295 296 296 297 298 298 299 302 302 302 303 305 306 307 309 310 310 310 311 308 307 310 310 307 307 308 308 307 308 310 309 308 310 310 307 306 305 307 309 310 310 313 313 312 311 311 314 317 316 314 313 310 310 312 313 315 319 318 312 312 314 313 311 311 311 310 309 308 308 309 312 313 313 311 310 312 313 313 312 312 312 311
297 297 297 296 296 295 296 296 297 297 298 299 301 301 300 302 303 305 306 307 307 306 306 307 306 306 308 309 307 306 306 308 307 306 308 308 308 309 309 306 305 304 305 306 307 307 308 309 310 309 310 312 314 313 313 312 311 311 315 314 312 313 315 317 321 319 314 312 312 311 310 310 310 310 312 315 314 312 312 312 314 315 311 309 311 312 311
296 297 297 296 296 295 296 297 297 297 298 298 299 299 301 303 304 305 306 306 305 304 304 304 305 305 306 306 306 306 305 306 307 306 306 306 306 307 308 306 304 303 304 305 305 305 305 306 307 307 307 308 310 310 309 309 310 312 314 314 313 315 314 317 323 321 313 312 312 311 311 313 314 313 313 315 313 310 309 308 310 312 310 311 314 313 309
296 297 297 297 296 296 297 299 299 298 297 297 297 299 301 304 305 305 306 305 302 302 303 304 304 305 305 305 305 305 305 305 307 308 307 304 305 305 306 306 305 304 305 305 305 303 303 305 305 305 306 307 307 308 307 307 307 310 313 313 314 319 319 318 321 320 314 312 314 315 316 316 315 312 311 312 310 308 307 306 305 307 309 312 313 308 305
296 296 297 297 296 296 297 300 301 300 299 297 297 298 301 304 305 304 304 304 301 300 302 303 304 304 304 303 304 303 304 304 305 307 307 305 305 304 303 304 307 306 304 303 303 303 304 305 305 306 306 306 307 308 307 307 306 307 311 313 312 318 321 317 316 317 313 312 316 318 315 313 310 308 309 309 307 305 306 305 304 305 307 308 307 305 304
296 296 296 297 296 296 296 299 301 301 300 298 296 298 300 303 305 304 303 303 301 300 302 302 302 303 302 302 302 302 302 303 304 305 306 305 304 304 302 303 306 306 303 302 303 303 303 305 306 306 306 305 305 306 305 307 308 305 307 311 310 312 313 311 314 318 313 311 313 313 312 311 308 306 306 306 305 304 304 303 303 304 305 305 305 304 304
296 296 296 297 297 296 296 298 300 302 301 298 297 298 301 303 305 305 304 303 301 300 301 301 300 301 302 301 302 302 301 303 303 303 304 304 303 303 302 302 303 302 303 303 303 304 307 309 310 310 309 308 307 307 306 307 309 306 305 308 310 312 312 311 313 316 312 309 310 312 311 309 308 307 306 306 305 307 308 306 303 303 304 304 304 304 302
296 296 296 296 297 296 296 297 299 301 301 300 297 298 302 303 305 305 305 305 302 298 300 301 300 301 302 301 301 302 301 302 303 303 303 303 303 302 301 302 302 301 303 303 303 306 310 312 313 313 313 311 310 312 310 307 307 308 306 305 308 312 314 312 309 311 313 312 310 310 308 306 307 308 306 304 304 306 309 307 304 302 302 302 303 303 301
296 296 296 296 296 296 296 296 298 300 301 301 298 298 301 303 304 304 304 305 304 300 299 301 301 301 301 300 301 302 303 302 303 304 303 302 302 302 302 302 302 302 303 303 303 307 310 310 310 311 311 310 309 311 311 307 306 307 306 306 307 309 312 312 309 309 315 316 310 307 307 306 306 307 305 303 301 302 306 308 305 302 301 300 300 302 300
296 296 296 296 296 296 296 296 297 298 300 301 299 298 301 303 303 302 301 302 303 302 299 300 300 299 299 300 300 301 303 303 304 305 306 303 301 301 302 301 301 302 302 302 304 308 310 309 308 309 310 309 308 308 308 308 308 306 305 306 307 308 311 313 311 310 312 313 311 309 309 307 304 305 304 302 300 300 303 307 305 301 299 299 299 299 298
295 296 296 296 296 296 296 295 296 297 298 301 300 298 300 302 302 301 300 299 300 300 299 299 299 299 299 300 300 300 301 302 302 304 305 304 301 301 302 301 300 301 302 303 305 308 309 309 308 309 309 307 306 307 308 309 309 308 308 309 309 311 314 313 311 310 311 311 310 308 307 305 303 304 303 300 300 303 306 307 304 299 298 298 298 298 298
295 295 296 296 296 296 295 295 295 296 297 300 300 298 299 301 301 300 300 299 299 299 298 298 298 298 298 299 299 299 300 300 301 302 303 302 300 301 301 300 300 301 301 303 306 307 307 307 306 307 308 306 306 309 309 309 309 307 308 309 308 310 313 311 309 309 311 311 309 305 305 304 303 302 301 299 301 307 308 305 301 298 297 298 298 297 297
295 295 296 296 296 296 295 295 296 297 297 298 299 298 299 300 300 300 299 298 299 298 298 298 298 297 298 298 298 298 298 298 300 302 302 301 301 300 301 300 301 300 300 303 306 305 304 305 305 305 307 307 307 308 307 306 307 306 306 308 308 307 309 309 308 308 308 308 307 304 303 302 301 301 299 299 304 307 304 300 298 297 298 298 297 298 297
296 295 296 296 296 295 295 295 295 296 297 297 298 298 299 299 300 300 300 299 299 298 298 298 297 297 297 298 298 297 297 297 298 300 300 301 300 301 303 303 302 300 299 302 305 303 302 303 304 304 304 304 305 307 306 305 304 303 304 305 304 304 306 307 305 305 306 306 305 304 303 301 299 301 300 299 301 301 298 297 298 298 298 298 297 298 297
296 296 295 296 296 295 295 295 295 296 298 298 298 298 299 299 300 300 300 300 299 299 299 298 297 297 298 298 297 297 297 297 298 298 299 300 300 302 303 302 300 300 299 300 302 301 300 301 302 302 302 302 303 304 304 304 303 301 302 302 301 302 304 305 303 302 304 304 303 302 301 298 297 299 299 298 298 298 297 298 298 297 298 298 298 298 298
296 296 295 296 296 296 296 295 295 297 298 298 297 297 298 299 300 300 300 300 299 299 299 299 298 297 297 297 297 297 298 298 298 297 298 299 300 300 300 299 299 300 299 299 301 301 301 300 301 301 301 302 301 301 301 304 303 300 299 302 302 300 301 302 301 299 299 300 300 300 298 297 297 298 298 297 298 297 298 298 297 297 298 298 298 298 298
296 296 296 296 296 296 296 295 295 297 299 299 298 298 297 297 299 300 300 300 299 299 299 299 298 298 297 297 297 297 297 297 298 297 297 298 299 299 299 299 299 299 298 299 300 300 299 299 299 301 302 300 300 301 301 302 301 299 299 300 300 298 299 300 299 298 298 298 298 298 297 297 298 298 297 298 298 297 298 298 297 298 298 297 298 298 298
296 296 296 296 296 296 296 296 296 297 299 299 299 298 297 296 297 299 300 300 300 299 298 298 298 298 297 297 297 297 297 297 297 297 298 298 298 298 298 298 299 299 299 299 299 299 299 299 299 301 301 300 300 302 301 300 301 301 301 302 300 298 299 300 299 300 301 299 297 297 297 297 297 298 297 297 298 297 297 298 297 297 297 297 298 297 297
296 296 296 296 296 296 296 296 297 297 298 299 299 298 297 295 296 298 299 299 300 300 299 298 298 298 298 297 296 297 297 296 296 297 298 298 297 297 298 298 299 299 299 299 299 299 299 299 299 301 301 299 300 301 299 300 301 301 301 303 301 298 299 300 299 301 301 299 296 297 297 297 297 297 297 297 297 297 297 297 297 297 297 297 297 297 297
296 296 296 296 296 296 296 296 297 298 298 298 299 298 298 296 295 297 298 299 300 300 299 299 298 298 298 297 296 297 297 296 296 296 297 297 298 297 297 297 298 299 298 298 298 299 298 298 299 301 300 299 299 300 299 299 299 299 299 299 298 298 299 299 299 300 299 298 297 297 297 297 297 297 297 297 297 297 297 297 297 297 297 297 297 297 297
297 296 296 296 296 296 296 296 296 298 299 299 299 299 299 297 295 296 297 298 300 301 301 300 299 298 297 297 296 296 296 296 296 296 296 297 297 297 297 297 298 298 298 298 298 298 298 298 299 300 299 298 298 299 298 297 297 299 299 297 297 298 299 298 299 301 300 299 298 297 298 299 298 297 297 297 297 297 297 297 296 297 296 296 297 297 296
297 296 296 296 296 296 296 295 296 297 298 299 299 300 300 298 296 295 296 297 299 301 301 300 299 298 298 297 297 296 296 296 297 296 296 296 296 296 296 296 296 297 297 297 298 298 297 298 299 299 298 298 298 299 298 298 299 300 298 297 297 298 298 298 301 301 299 298 297 297 297 298 297 297 297 297 297 297 297 296 297 296 296 296 296 296 296
297 296 296 296 296 296 296 296 296 296 298 299 300 300 301 299 296 295 295 296 297 298 299 299 300 299 298 297 297 296 296 296 297 297 296 296 296 296 296 296 296 296 297 297 298 298 297 297 297 297 297 298 299 299 298 298 299 299 297 296 297 297 297 297 298 298 297 297 297 297 297 297 297 297 297 296 296 297 296 297 297 297 296 296 296 296 295
297 296 296 297 297 297 296 296 296 297 297 297 298 300 301 300 296 293 294 296 296 297 298 299 300 300 299 298 297 297 296 296 297 297 297 296 296 296 296 296 296 295 296 296 296 296 297 296 296 297 298 298 298 298 298 297 298 297 297 297 297 297 297 297 296 297 297 297 297 297 296 296 296 296 296 296 296 296 296 296 296 296 296 296 295 295 295
297 297 297 297 297 297 296 296 297 297 296 295 296 296 297 297 294 293 294 295 296 296 297 299 300 299 298 298 298 297 297 297 297 297 297 297 297 297 296 295 296 295 295 296 295 295 296 296 296 297 298 297 297 299 299 298 297 296 296 297 297 297 297 297 297 297 297 297 296 296 296 296 296 296 296 296 296 296 296 296 296 296 296 295 294 294 294
297 297 297 297 298 297 296 297 298 298 297 296 296 296 295 295 294 293 294 295 295 296 297 299 300 299 297 298 298 297 297 297 297 297 297 297 296 296 296 295 296 296 296 296 295 295 295 295 295 297 298 297 298 299 298 298 298 297 296 297 297 297 297 297 297 297 297 296 296 296 296 296 297 296 296 296 296 296 296 296 296 295 294 294 293 293 292
297 297 297 298 298 297 297 297 298 298 298 298 298 297 296 295 294 294 294 295 296 297 298 299 299 298 297 297 298 297 297 297 298 297 297 297 296 296 295 295 295 296 296 296 296 295 295 295 296 296 297 297 298 298 298 298 299 298 297 297 297 297 297 297 297 296 296 296 296 296 296 296 296 296 296 296 296 296 295 295 294 294 293 293 293 293 293
297 296 297 298 298 297 297 297 298 299 299 299 299 298 297 296 295 294 294 294 295 298 299 299 298 298 298 298 299 298 297 297 297 297 297 297 297 296 296 296 295 296 296 296 296 295 296 296 296 297 298 298 297 297 297 298 297 297 297 297 297 297 297 296 296 296 296 296 296 296 296 296 296 296 296 296 295 295 294 294 293 293 293 294 294 293 293
297 296 297 298 298 298 298 298 298 299 299 299 300 299 298 297 295 294 294 294 294 297 299 299 298 299 300 300 300 299 298 297 297 297 297 297 296 296 296 295 295 296 297 296 295 295 296 296 296 297 297 296 296 297 298 297 297 297 297 297 297 297 297 296 296 296 296 295 296 296 296 296 296 296 296 296 295 294 294 294 293 293 293 294 293 292 291
296 296 297 298 298 299 300 299 299 299 299 300 299 298 297 296 294 293 294 294 294 295 298 299 298 299 299 299 299 298 297 297 297 297 297 297 297 296 296 295 296 297 296 295 295 296 297 296 297 298 297 296 297 298 297 297 297 297 297 297 297 297 296 295 295 296 296 295 296 296 296 296 296 296 296 295 294 293 293 293 294 294 294 293 291 289 289
297 297 298 299 299 300 300 300 300 299 299 298 297 296 295 295 295 295 295 295 295 296 296 297 298 298 298 298 298 297 298 298 297 297 297 297 296 296 296 296 296 296 296 296 297 297 297 297 297 298 298 298 298 298 297 297 298 298 297 297 297 296 295 295 295 296 296 296 296 296 296 296 296 296 295 295 294 293 293 293 293 293 293 293 292 290 289
298 299 299 299 300 300 300 300 300 299 299 297 296 296 296 296 296 297 297 297 298 298 297 298 298 298 297 298 298 298 298 297 297 298 298 297 296 296 296 297 296 295 296 298 298 296 296 297 298 298 299 298 297 297 297 297 298 298 297 297 297 296 295 295 296 296 296 296 296 296 296 296 296 295 295 295 294 293 293 293 293 293 293 293 292 291 290
298 299 299 299 300 300 299 299 299 299 298 297 297 298 298 298 298 299 299 299 299 299 299 299 299 298 297 298 298 297 297 297 297 298 298 297 296 297 296 296 296 295 295 298 297 295 296 298 298 298 299 298 297 297 298 298 297 297 298 297 296 295 295 296 296 296 295 295 296 295 295 296 296 295 294 294 294 293 294 294 294 294 293 292 292 292 291
298 298 298 299 299 299 299 299 298 298 297 297 297 298 298 298 298 299 299 299 299 299 299 299 298 297 298 298 298 298 298 297 298 298 298 297 296 296 295 296 296 295 295 296 296 295 296 297 297 297 299 299 298 297 298 298 297 297 297 296 295 295 295 296 296 296 295 296 296 295 295 295 295 295 294 294 294 294 295 294 294 293 292 292 292 292 291
297 296 296 297 297 297 297 297 297 296 297 297 297 298 298 298 298 298 297 298 299 299 298 298 298 298 298 298 298 298 298 298 297 296 297 297 296 295 295 296 295 294 295 297 296 295 297 297 296 298 299 298 298 298 298 297 298 297 296 296 295 296 296 296 296 295 295 296 296 295 295 295 295 295 295 295 294 295 295 294 293 292 292 292 292 291 291
296 296 296 296 296 297 297 296 296 297 298 297 297 297 297 297 297 297 298 298 299 299 298 297 298 298 298 298 297 297 297 297 296 296 297 297 296 295 296 296 295 294 296 298 296 296 296 295 296 299 299 298 297 298 298 297 297 297 296 296 296 296 296 296 295 295 295 295 296 295 295 295 295 295 295 294 294 294 294 294 293 292 291 291 291 291 291
296 296 296 297 297 297 297 297 297 298 298 297 297 297 297 297 297 298 298 298 298 298 297 298 298 298 298 298 297 297 297 297 296 296 296 297 296 295 295 295 295 296 297 297 295 295 296 295 296 299 299 298 298 298 298 297 297 296 296 297 297 296 296 296 296 295 295 296 296 295 295 295 295 295 294 293 293 293 293 293 293 292 291 290 290 290 290
296 297 297 298 298 297 297 298 298 297 297 297 297 297 298 298 300 301 300 299 299 298 298 298 298 298 298 297 297 297 297 296 296 296 296 296 296 296 295 296 297 296 296 296 296 296 296 297 297 297 297 297 298 298 297 297 297 296 297 297 296 296 296 296 296 295 295 295 296 295 295 295 295 295 293 292 292 293 293 293 292 292 291 290 289 289 289
296 297 297 298 298 297 297 297 298 298 298 299 298 298 299 300 301 301 300 299 299 298 297 297 297 297 297 297 296 297 296 296 296 296 296 295 296 296 296 297 297 296 295 296 296 295 296 298 298 296 296 298 298 298 298 297 297 296 297 297 296 296 296 296 296 295 295 295 295 295 295 294 295 294 293 293 292 293 293 293 292 292 291 290 289 288 289
296 296 296 297 297 297 296 297 298 298 299 299 298 299 299 298 299 299 299 298 298 298 297 297 297 297 297 296 296 296 296 296 296 296 296 295 296 296 296 296 296 295 295 296 295 295 297 298 297 295 296 298 298 298 297 297 296 296 296 296 296 296 296 296 296 296 296 295 294 294 294 294 294 294 294 293 292 293 293 292 292 291 291 290 289 288 288
297 297 296 297 298 297 297 297 298 298 298 297 297 297 298 298 298 298 298 298 298 298 298 297 297 297 296 296 296 297 296 296 296 297 296 296 296 296 296 295 296 296 296 295 295 297 299 298 295 295 297 298 298 298 297 296 295 296 296 296 296 296 296 296 296 296 296 296 295 295 295 294 294 294 294 293 293 293 292 292 292 291 291 290 288 287 287
296 296 296 297 298 298 298 298 298 297 296 297 297 297 298 298 298 298 298 298 298 298 298 297 296 296 296 296 296 296 296 296 296 297 297 296 296 296 296 296 296 296 295 296 297 299 298 296 295 296 297 297 297 297 296 295 295 295 295 295 296 296 295 296 296 296 296 296 296 295 295 294 294 294 294 294 293 293 292 292 292 291 290 289 287 286 286
295 295 296 296 297 297 297 297 297 296 296 297 297 297 297 297 297 297 298 298 297 298 297 296 296 297 297 296 296 296 296 296 297 297 296 296 296 296 296 296 295 296 297 298 298 297 296 296 296 297 297 297 297 297 296 295 295 295 294 294 295 295 295 295 296 296 296 296 296 296 296 295 294 293 294 294 293 293 292 292 292 292 290 288 286 285 285
296 296 296 296 296 296 296 297 297 297 297 297 296 296 297 297 297 297 298 298 297 297 297 296 296 296 296 296 296 296 296 296 296 296 296 296 296 296 296 296 296 297 299 299 297 295 296 297 296 296 296 296 297 297 296 295 295 295 294 294 295 295 294 295 296 296 296 296 296 296 296 296 294 294 294 294 293 292 292 292 293 292 290 288 286 286 285
297 296 296 296 296 296 296 297 297 297 296 296 296 297 297 297 297 297 298 297 297 297 297 297 296 296 296 296 296 296 296 296 296 296 296 296 296 296 296 297 297 297 297 297 296 296 297 297 296 296 297 297 297 296 296 295 295 295 295 294 294 294 294 295 295 296 296 296 296 296 296 296 295 294 293 294 294 293 292 292 293 292 290 288 288 288 287
297 296 296 296 296 296 296 296 296 296 296 296 297 297 297 297 297 297 297 297 297 297 297 297 296 297 297 297 297 296 296 296 296 296 296 295 295 295 296 297 297 296 295 296 297 297 297 296 296 296 297 296 296 296 296 295 295 295 295 294 294 294 294 294 295 295 296 296 296 296 296 296 295 294 294 294 294 293 292 292 293 292 290 289 289 289 288
Wind_Speed
26 28 30 32 33 34 33 31 28 27 29 28 26 24 18 11 8 5 13 11 12 18 4 2 2 2 4 6 8 9 8 7 8 9 10 8 5 4 2 2 1 1 0 2 2 3 1 3 3 1 1 0 2 7 15 14 7 4 3 1 2 3 4 3 1 3 4 4 2 5 7 7 6 4 4 4 4 2 4 5 3 1 2 1 2 1 4
26 28 30 32 33 33 33 31 27 24 26 27 24 21 18 14 11 9 12 6 10 10 1 2 3 3 4 3 6 10 9 9 10 7 7 8 5 2 1 3 2 1 2 2 3 4 2 2 3 2 2 1 5 11 15 13 6 2 1 2 1 2 2 3 3 3 5 6 6 6 6 5 3 1 3 5 6 6 3 1 3 3 1 1 3 2 4
26 28 30 32 33 34 33 31 29 26 24 24 20 17 16 12 9 11 13 5 5 4 2 2 2 2 3 2 4 7 6 10 12 7 3 6 5 3 3 5 4 3 3 3 3 4 4 0 4 3 1 1 5 5 4 6 5 3 1 3 3 3 2 3 4 2 1 1 2 2 3 3 2 2 5 5 7 7 3 2 4 2 2 1 4 3 4
26 28 30 32 33 34 33 32 31 28 24 21 16 13 12 8 4 9 13 13 11 9 10 9 4 2 2 2 3 3 3 7 9 4 2 6 9 10 10 10 7 5 5 4 5 7 6 4 3 4 3 3 3 7 7 3 6 9 8 5 4 4 2 3 6 6 5 5 5 3 1 3 3 5 7 5 5 5 4 4 3 2 2 3 1 2 2
26 27 30 32 33 33 33 32 31 29 25 19 13 11 10 5 3 5 7 11 13 14 17 14 6 3 3 1 3 5 4 4 7 6 8 10 10 9 11 13 8 6 5 5 6 8 7 8 6 5 5 4 3 6 8 7 9 10 8 5 3 5 2 1 5 5 5 6 3 1 3 3 2 4 7 6 5 5 6 5 1 3 5 3 4 3 6
26 27 29 31 32 33 33 33 31 29 26 18 13 15 13 6 3 6 7 4 3 5 11 12 8 10 8 4 6 10 10 9 9 7 9 16 16 7 8 13 12 9 7 5 4 7 6 8 6 5 6 5 4 7 6 5 8 8 5 4 4 6 1 2 3 2 1 3 4 5 5 4 4 5 6 6 5 5 5 2 2 4 5 3 1 8 8
25 27 28 30 31 32 33 33 31 30 25 18 17 20 16 8 4 8 12 6 4 5 10 10 7 13 9 5 8 11 11 10 9 8 6 9 14 9 6 8 12 12 10 6 4 5 5 4 5 5 6 6 4 4 4 6 9 8 4 4 4 4 1 2 3 4 4 5 6 7 8 6 6 8 7 6 5 6 5 3 2 7 7 5 7 12 8
25 26 27 29 30 31 32 32 32 31 25 19 24 26 19 11 6 9 11 9 10 16 15 8 7 10 8 7 8 9 10 9 9 12 10 5 6 8 7 7 10 11 11 10 6 3 3 2 3 3 5 6 4 3 2 3 7 8 4 3 4 3 2 2 4 5 4 4 6 8 7 6 6 8 9 8 8 8 7 5 5 7 6 4 8 12 7
24 25 26 28 29 29 30 31 31 33 28 23 27 29 22 14 12 10 6 5 10 14 14 10 6 7 8 7 6 7 9 9 5 8 14 12 7 5 5 6 8 9 11 11 6 5 4 3 7 7 6 5 4 3 2 2 4 5 3 2 3 3 1 2 6 4 3 3 5 6 6 7 8 8 10 9 8 7 6 5 6 4 4 4 8 9 3
24 24 25 26 27 27 28 28 29 31 30 28 28 28 24 19 17 13 5 4 10 10 7 9 8 5 7 9 10 9 9 10 7 5 11 16 14 11 9 7 5 8 10 9 9 11 12 12 13 13 11 10 10 9 7 4 2 1 2 2 2 3 3 1 4 3 3 3 4 6 6 6 4 4 6 4 4 9 8 8 10 7 4 4 5 4 1
24 23 23 24 26 26 25 26 27 29 30 31 29 27 26 21 17 17 11 6 10 11 7 7 7 5 9 12 12 12 11 12 10 5 4 9 12 15 16 11 5 4 5 8 13 15 15 13 12 11 10 11 12 12 12 9 4 1 3 3 2 2 5 2 2 4 3 4 3 6 4 1 3 5 3 2 9 14 12 8 9 9 6 5 4 2 1
24 23 22 23 24 24 24 23 24 26 27 28 26 24 24 20 15 15 12 6 6 10 6 6 8 8 13 16 13 11 11 12 13 9 4 5 11 15 16 12 6 3 7 11 12 11 10 8 7 7 8 9 10 10 9 7 8 8 3 5 2 0 3 0 1 4 2 2 5 4 2 4 5 2 3 8 13 16 15 10 9 9 7 6 6 4 5
25 23 22 22 22 22 23 22 21 23 23 24 25 23 22 21 16 13 11 6 5 7 3 7 16 18 18 18 13 12 17 20 20 17 9 7 12 15 16 13 6 7 11 12 10 6 4 4 4 4 6 6 7 7 5 5 7 9 6 4 5 4 3 2 1 3 2 1 4 3 5 3 3 1 2 6 7 8 10 10 9 8 5 5 5 5 8
24 24 22 21 21 20 20 20 19 20 21 22 23 22 21 21 17 14 11 6 5 11 9 6 12 16 16 17 14 12 17 21 19 17 14 13 13 14 19 20 15 12 13 12 9 6 3 2 4 3 4 5 5 4 5 6 6 7 8 6 6 7 4 3 3 2 3 4 3 2 3 1 2 3 2 1 2 1 4 6 3 5 5 6 5 5 9
24 23 22 20 20 19 19 18 17 17 20 20 20 20 20 19 16 14 12 6 3 11 16 9 7 10 11 14 15 10 7 10 10 10 13 16 16 15 20 24 20 15 13 10 6 3 2 2 3 2 2 2 1 2 3 3 2 2 2 3 4 5 4 5 5 2 3 5 3 2 3 4 3 4 5 4 3 2 6 7 3 5 7 8 7 5 9
23 23 22 20 19 18 17 17 15 15 17 18 18 18 19 18 15 14 16 13 5 5 12 13 14 15 11 12 17 13 6 5 5 5 7 12 16 17 19 23 21 17 15 10 4 3 3 2 2 2 1 1 2 2 3 3 3 5 7 7 6 4 2 4 4 2 3 5 4 3 3 5 4 5 8 11 11 4 5 7 3 5 9 10 10 9 11
22 22 22 20 19 18 17 16 15 13 14 16 17 18 17 18 16 14 19 22 16 10 13 15 17 18 12 8 13 12 8 6 4 2 3 5 10 16 19 21 20 19 18 10 2 3 4 2 2 2 1 1 1 1 2 3 3 6 7 8 9 7 4 4 4 3 2 4 4 1 2 2 3 5 8 13 13 5 5 4 1 5 10 13 13 13 14
21 21 21 20 19 18 17 16 15 13 13 14 14 14 14 16 16 13 17 20 15 11 14 16 16 16 11 7 8 9 7 7 4 3 3 4 6 13 17 16 15 16 15 8 2 3 4 2 3 2 0 2 2 1 1 2 2 3 4 4 5 4 3 3 3 2 2 3 3 1 1 0 4 6 10 14 9 5 5 3 3 3 11 15 16 15 14
20 20 20 20 19 18 17 15 14 13 14 14 12 11 12 15 15 14 16 18 14 11 12 15 16 15 11 11 14 13 11 11 8 4 2 3 10 15 11 7 11 12 10 7 3 3 4 3 3 2 2 3 2 1 2 2 2 2 2 3 4 3 3 3 3 2 3 2 3 2 1 2 6 6 11 13 5 3 2 3 4 9 11 13 14 14 13
18 19 19 19 18 18 17 15 14 13 13 14 12 10 10 12 12 11 12 14 15 14 13 13 14 14 12 12 14 14 14 14 11 6 1 3 14 15 4 4 10 11 7 6 4 2 3 3 3 2 2 3 2 1 1 2 3 4 2 2 2 2 2 3 2 2 2 2 3 3 1 5 7 5 9 10 4 3 2 4 8 12 12 12 13 12 12
16 17 18 18 18 18 17 15 13 12 13 14 12 8 7 8 9 9 9 10 12 12 11 10 12 13 12 12 13 14 14 13 11 9 6 6 13 11 3 1 7 6 3 3 2 1 2 2 2 2 2 2 2 2 2 2 3 6 3 3 2 2 1 2 1 2 2 2 2 2 2 7 11 10 6 5 7 7 8 8 9 12 12 12 12 11 11
15 15 16 17 17 17 17 15 12 11 12 14 12 9 7 6 7 8 8 10 11 10 8 7 9 10 10 10 12 13 13 13 13 12 11 11 12 11 6 5 6 5 5 5 2 1 2 1 1 2 2 2 3 3 3 2 1 5 5 4 3 2 1 4 3 3 4 3 2 5 8 13 19 19 13 11 12 11 10 10 10 11 10 10 10 9 10
13 14 15 16 16 16 16 15 11 9 11 14 13 14 12 8 5 6 6 8 10 10 8 6 5 7 10 10 9 9 10 11 12 12 12 10 10 10 9 9 8 6 7 8 4 1 1 1 1 1 2 2 2 3 4 3 1 2 4 3 2 4 4 5 5 4 6 6 7 8 11 13 15 16 14 14 13 10 9 9 8 8 7 7 8 8 10
12 12 13 14 14 14 14 14 10 7 8 11 12 14 15 12 8 5 4 6 7 7 7 6 5 5 7 8 7 7 8 9 10 11 10 8 8 7 6 7 7 6 8 10 7 4 2 2 2 2 2 1 2 3 3 3 0 1 3 2 2 5 6 5 3 3 4 3 4 3 6 10 12 12 12 13 12 9 8 8 7 6 5 6 8 10 11
12 12 12 12 13 13 13 13 10 6 5 7 10 12 14 16 14 8 4 5 5 5 4 4 6 6 5 5 6 6 6 8 10 8 5 6 8 7 5 5 6 6 7 8 8 7 4 1 1 3 2 2 3 2 1 1 1 1 2 1 2 2 3 3 3 3 3 4 2 3 3 7 10 13 11 11 11 9 7 7 7 6 6 7 9 11 12
12 11 11 10 11 12 11 11 9 5 3 5 8 11 14 17 16 10 6 5 5 5 2 1 4 6 6 6 7 5 2 4 9 8 6 5 7 7 6 6 5 6 6 6 6 6 4 2 1 2 1 1 2 1 1 0 1 1 1 2 2 1 2 1 2 3 3 2 3 7 2 3 6 13 11 9 10 9 7 7 7 6 6 8 10 11 13
12 11 10 10 10 11 10 9 7 4 3 3 4 7 12 15 14 12 11 8 4 3 2 1 3 6 5 5 8 7 2 2 5 7 6 5 4 6 6 4 3 4 5 6 5 4 4 3 2 1 1 2 2 0 1 1 1 3 1 4 3 3 1 1 3 3 1 3 2 4 2 3 7 12 11 9 9 8 7 8 9 8 10 11 12 13 14
11 10 9 9 10 10 9 8 6 3 3 4 4 4 7 11 12 11 11 10 6 2 1 3 5 5 3 3 6 6 3 2 3 4 6 6 3 2 2 2 3 4 4 4 4 2 2 3 2 1 1 1 2 2 3 2 3 3 2 3 4 4 3 3 3 3 3 4 4 1 1 4 6 8 8 8 8 9 10 11 12 12 13 13 13 14 15
10 9 8 8 9 10 8 7 6 4 2 3 4 2 3 8 10 8 7 8 7 5 4 4 5 3 2 3 4 4 2 3 4 4 6 6 3 1 1 4 4 3 2 2 2 2 1 2 3 3 1 0 1 1 2 2 2 0 1 3 7 7 6 6 6 5 3 2 1 0 1 2 3 5 6 8 10 12 12 13 13 14 13 13 13 14 14
8 7 7 7 8 9 7 5 5 5 4 4 3 2 2 5 7 7 6 6 7 7 6 4 3 2 2 4 3 4 4 4 4 4 5 6 4 2 4 6 3 2 2 2 2 1 2 3 4 4 3 4 2 1 0 1 1 1 2 6 9 9 8 7 5 4 3 2 0 2 3 3 5 7 8 9 12 13 14 14 13 12 12 12 12 12 12
7 6 6 7 7 7 4 3 4 6 6 6 6 5 3 4 5 4 4 5 6 7 6 4 4 4 3 5 5 2 5 7 6 5 5 6 5 4 5 6 3 0 2 3 2 1 2 3 3 4 4 6 3 1 2 3 1 0 3 8 9 7 7 6 3 2 1 1 5 6 6 6 8 9 9 11 13 14 13 13 12 11 11 11 11 12 13
4 4 4 5 6 4 2 3 4 5 6 7 8 7 6 5 5 4 5 5 5 6 6 4 2 3 2 2 3 2 4 6 6 6 5 4 5 5 4 4 3 1 3 3 1 1 2 3 4 3 3 6 3 1 3 3 2 4 7 9 7 5 5 4 2 1 1 4 6 5 5 6 9 10 11 11 11 10 9 9 10 9 9 10 10 11 13
2 2 2 4 5 4 3 3 3 4 4 5 7 8 9 8 7 6 6 6 4 4 4 2 1 2 2 1 3 1 6 7 6 7 5 3 4 6 5 3 3 3 4 3 3 2 2 3 3 2 3 6 4 1 1 2 6 10 12 10 7 6 5 3 2 2 0 3 4 4 5 7 8 9 9 8 6 5 6 7 7 7 8 8 9 11 13
2 1 1 2 3 3 2 2 2 2 2 4 5 8 11 12 9 8 7 5 4 3 2 2 1 2 2 1 2 3 8 8 6 7 5 2 4 7 5 3 3 2 3 3 3 3 3 4 3 1 2 5 3 2 1 4 9 15 14 10 9 8 6 5 4 4 3 3 5 6 7 7 7 7 5 4 3 5 6 6 6 7 9 9 9 12 16
3 3 2 1 2 3 1 1 1 1 3 4 5 9 13 13 10 6 6 5 4 2 1 2 2 1 2 2 1 4 7 7 5 7 7 5 6 7 5 2 2 2 3 3 3 3 3 3 3 2 2 3 2 1 3 7 13 17 16 13 12 9 6 5 4 4 5 5 6 7 6 6 6 5 2 2 3 5 5 5 6 8 9 10 11 14 15
5 4 3 2 1 4 2 2 2 3 5 7 10 13 14 11 7 5 5 5 4 3 2 2 2 1 0 0 2 4 5 5 6 8 8 6 5 5 4 2 1 2 3 2 2 2 2 4 4 2 2 2 3 5 9 15 19 18 16 14 11 7 4 2 2 4 6 7 6 6 5 6 5 3 4 3 4 6 5 6 6 6 7 9 12 14 14
5 3 2 1 2 4 3 1 2 3 6 10 13 12 8 5 4 4 6 6 5 5 4 2 2 3 2 2 2 3 4 4 5 7 7 6 6 5 3 1 1 1 1 1 2 3 3 5 4 1 2 4 6 9 11 17 20 18 14 11 7 4 2 3 3 4 6 7 5 5 5 5 4 4 5 4 5 6 5 5 4 5 6 9 12 14 16
5 3 1 2 2 2 1 1 3 4 8 11 11 7 4 3 3 4 5 5 5 5 5 3 4 5 5 2 1 1 2 4 5 4 3 5 5 4 2 1 1 1 1 3 3 2 1 2 2 2 4 6 7 9 10 14 16 14 10 8 6 4 4 4 4 5 7 7 7 6 6 5 5 5 5 4 4 5 5 4 4 6 8 9 11 14 16
4 2 3 3 2 0 1 3 5 8 11 10 7 5 3 2 2 2 3 3 3 4 5 5 6 9 7 3 2 1 0 3 4 2 2 3 3 2 2 2 1 0 1 3 2 1 0 2 1 2 3 4 2 7 11 12 12 10 8 7 6 5 4 3 5 7 8 7 6 5 5 6 7 5 3 3 4 4 4 5 5 7 9 10 11 14 16
3 3 4 4 4 4 6 8 9 10 9 6 4 3 2 2 2 2 2 2 2 4 6 6 7 8 7 4 2 2 1 2 1 0 2 2 2 1 1 1 1 1 1 3 2 1 1 1 2 2 4 3 7 13 13 11 10 10 9 7 6 5 4 4 6 7 6 5 4 2 4 6 6 4 3 3 4 4 5 5 6 7 9 9 10 12 14
3 4 4 5 6 8 9 10 9 6 4 2 2 2 1 2 3 3 2 1 2 3 6 6 4 4 5 4 2 2 2 1 0 0 1 2 1 0 0 1 1 1 1 3 3 2 1 1 2 3 4 9 15 17 14 12 11 9 8 6 5 5 5 6 7 6 4 4 5 5 6 6 5 4 4 3 4 6 6 5 5 7 8 8 8 10 11
7 7 5 5 6 5 6 5 4 2 1 1 1 1 1 2 3 3 2 2 3 3 5 5 3 4 5 3 1 2 3 2 0 0 1 0 1 1 1 1 1 0 2 4 3 2 1 1 2 3 6 12 19 19 16 15 13 9 8 7 5 6 7 6 6 4 4 6 8 7 7 7 6 4 3 3 3 5 5 4 5 7 8 7 7 8 8
7 7 7 6 5 3 3 2 2 3 1 1 1 1 2 1 2 2 2 3 3 1 2 4 4 5 5 4 3 2 2 1 1 1 1 1 1 1 0 1 1 2 4 3 2 1 1 2 3 5 7 12 20 20 17 15 13 10 9 9 7 6 6 4 4 3 5 8 9 7 6 6 5 2 2 2 2 3 3 5 7 8 8 8 8 6 5
5 4 5 5 4 3 3 1 2 3 0 1 1 1 2 3 3 2 1 2 3 2 2 3 4 4 3 2 1 1 2 1 0 0 1 2 1 1 0 1 3 3 3 3 0 2 2 3 4 6 6 10 20 20 15 14 14 13 12 11 8 6 6 5 3 3 5 8 9 8 7 6 5 3 2 2 1 2 4 6 8 8 8 9 8 5 3
4 4 5 4 3 1 1 1 1 1 1 2 3 3 2 2 2 2 3 5 4 2 6 7 7 6 5 3 1 1 2 2 1 1 1 0 1 1 2 3 2 2 2 1 1 2 3 3 5 8 7 11 20 18 13 13 14 13 12 11 9 9 8 6 4 4 5 7 8 8 7 7 6 4 3 2 1 2 5 6 8 8 8 8 7 5 3
4 5 5 3 2 1 0 0 1 0 1 1 2 3 4 4 4 6 8 8 4 2 5 5 4 4 3 2 1 1 3 3 1 1 2 1 0 2 3 2 2 1 1 1 3 3 3 5 7 10 8 12 19 17 14 14 13 12 11 11 11 10 9 6 5 5 5 6 7 7 7 7 7 5 5 4 2 3 4 6 8 8 7 7 7 6 4
4 4 3 1 1 2 1 2 2 3 5 8 12 15 14 12 9 8 7 4 1 1 2 0 1 1 0 1 0 2 3 3 2 1 2 1 1 2 1 1 1 1 1 2 4 3 4 7 9 11 8 9 17 17 15 14 13 12 10 9 10 10 8 7 7 7 7 7 8 8 7 7 6 6 6 6 4 3 5 6 7 7 7 7 7 6 5
3 3 1 0 1 1 2 2 6 10 12 14 15 16 16 15 12 10 8 7 4 4 4 2 2 1 0 1 2 2 2 2 1 2 2 2 0 1 1 1 1 2 2 3 4 5 7 10 10 11 10 9 14 17 15 14 13 12 9 8 9 9 8 7 8 8 8 9 10 10 9 8 8 7 6 7 7 5 5 6 5 6 7 7 6 6 5
2 1 1 2 2 4 6 7 10 12 14 16 16 15 16 18 17 14 12 9 5 3 3 2 1 1 1 2 1 1 1 2 1 1 2 2 1 1 1 2 3 3 3 3 5 7 9 9 9 11 11 11 14 16 16 14 12 11 9 8 8 8 7 7 8 8 8 10 11 12 11 9 8 9 7 6 7 7 5 5 5 5 6 5 4 5 7
2 3 4 4 3 5 7 8 7 7 11 16 19 18 18 18 17 14 11 7 5 4 3 3 3 2 1 1 0 0 1 2 2 1 1 2 2 2 2 3 3 3 4 6 8 9 10 11 13 14 14 13 14 16 17 15 13 11 9 8 8 8 7 7 8 9 10 10 10 12 13 12 10 10 9 6 6 7 6 5 4 4 3 3 4 7 8
3 4 7 9 9 8 7 6 6 6 10 15 20 20 19 17 15 13 11 9 6 4 3 2 2 1 0 0 1 1 2 2 2 2 2 3 2 2 2 4 4 5 8 12 12 11 12 14 16 18 18 15 14 18 17 13 13 12 11 10 10 9 8 8 8 9 10 10 9 10 13 13 11 10 9 7 8 10 10 8 6 4 3 1 3 7 9
5 6 7 10 13 14 14 14 15 16 18 21 23 21 18 17 16 16 13 9 6 6 6 4 1 1 1 2 2 2 1 1 2 3 3 3 3 4 5 7 9 12 15 15 12 11 13 14 14 14 15 14 14 18 17 15 14 13 12 11 11 10 9 8 8 9 10 11 10 10 12 12 12 11 9 9 10 12 12 10 8 6 3 1 2 5 7
Wind_Direction
2 1 359 358 359 359 0 1 358 348 345 351 358 356 351 342 301 300 20 27 174 170 138 323 186 190 238 234 243 249 257 269 275 282 284 281 265 248 271 300 279 301 243 166 80 42 59 222 222 151 100 163 108 56 46 45 38 51 78 309 324 69 77 61 335 299 305 300 349 47 37 43 63 20 12 56 28 34 139 172 187 117 346 354 109 185 271
4 3 1 0 1 2 3 4 5 358 351 350 353 353 350 340 320 334 12 31 172 163 105 208 191 271 261 238 255 252 250 258 262 271 286 284 269 197 48 352 322 322 7 82 87 67 62 264 282 100 128 22 45 43 34 41 53 20 213 186 18 50 94 81 57 359 344 347 352 3 6 22 66 340 1 44 31 25 40 22 63 69 292 142 121 206 249
7 5 4 3 3 4 5 7 9 8 358 352 353 357 360 356 340 350 5 32 130 95 13 222 212 277 273 288 270 253 259 260 252 251 317 346 7 58 26 9 17 13 19 49 66 78 98 263 329 16 80 65 84 91 352 7 53 57 109 135 106 99 125 103 109 146 218 322 281 292 333 344 355 3 11 31 34 35 41 35 55 64 277 70 109 183 246
10 8 7 5 5 7 8 10 12 12 4 358 -0 9 12 16 4 345 356 21 37 21 1 3 359 303 308 305 279 269 276 274 271 266 57 39 49 55 28 19 36 24 16 49 31 25 61 74 20 18 1 342 89 138 163 140 100 96 85 79 88 90 82 105 128 153 176 185 213 234 32 23 345 337 349 11 33 47 80 83 71 129 103 16 297 167 42
11 11 10 8 8 9 10 14 16 15 10 3 9 30 33 38 39 357 349 0 7 4 0 3 0 340 8 38 323 338 352 337 345 21 44 25 31 61 41 29 41 16 5 62 32 3 34 52 26 354 343 330 20 82 103 102 96 97 75 38 72 84 44 119 119 139 182 174 185 309 43 46 358 341 345 357 27 50 75 90 170 163 97 11 303 71 72
13 13 13 11 11 11 13 16 18 19 17 13 32 48 43 43 34 14 14 341 315 1 337 323 352 17 17 46 26 14 25 27 12 17 38 27 21 44 52 36 41 29 20 74 44 353 29 42 9 343 347 343 8 34 40 45 65 82 53 13 88 107 124 218 118 89 125 97 63 44 55 50 35 33 11 359 31 72 88 109 195 141 117 160 134 85 80
15 15 15 14 14 14 14 16 19 23 23 26 49 51 36 36 39 4 12 359 299 338 316 301 24 35 12 24 36 24 27 35 27 15 26 28 22 36 66 43 43 40 35 66 66 16 35 24 342 348 354 337 352 29 7 357 22 46 45 14 63 98 202 223 116 67 26 40 55 52 50 47 39 35 24 17 47 80 80 46 67 91 104 149 113 82 66
16 16 17 17 16 16 16 16 19 23 25 35 51 48 31 28 24 347 358 6 358 8 5 358 50 40 14 28 36 25 26 29 32 34 39 39 17 34 63 50 42 46 44 54 65 50 89 149 275 326 353 346 1 36 19 331 355 16 32 5 25 72 207 238 90 70 349 351 51 57 59 76 65 28 11 18 39 49 46 23 25 66 80 95 87 76 49
17 17 19 19 19 20 17 17 20 22 27 37 46 43 35 37 33 -0 344 3 6 15 18 16 39 34 13 17 19 28 36 24 21 42 40 42 40 33 60 65 45 37 35 37 29 358 353 289 276 284 291 296 301 319 347 13 6 7 13 15 38 79 102 6 66 79 286 307 55 61 60 71 63 27 2 3 36 60 55 24 16 67 122 92 63 68 34
18 19 20 19 20 22 20 21 22 22 27 36 39 37 34 38 40 34 48 46 13 13 22 24 36 29 358 8 22 31 32 24 34 53 25 30 48 57 65 81 65 41 31 13 340 329 327 313 308 311 304 293 290 288 299 327 21 70 52 38 52 96 99 78 88 97 271 279 83 78 55 45 24 349 337 337 76 88 72 34 18 29 96 100 77 93 217
18 20 21 21 21 23 24 25 25 24 28 33 35 36 33 31 33 35 50 63 11 7 25 30 31 18 2 15 28 28 22 18 24 50 23 15 39 55 58 64 78 68 21 337 322 324 324 315 312 319 323 322 318 306 300 307 307 237 118 84 349 61 96 133 127 115 254 277 68 68 51 62 255 290 332 88 102 88 77 53 24 22 44 79 100 116 350
19 20 22 22 21 22 24 27 28 27 30 32 34 38 35 32 37 39 50 76 15 11 33 30 19 18 17 23 25 18 18 15 15 32 63 21 32 48 51 55 74 48 346 331 326 328 332 331 320 316 325 328 327 321 309 299 291 280 218 141 175 60 98 132 97 119 200 291 68 71 261 206 190 221 63 100 107 98 89 70 35 29 39 53 58 32 4
20 20 23 24 22 22 23 26 29 28 29 32 34 39 38 35 44 49 53 75 36 10 22 22 20 23 24 23 21 15 16 17 20 30 38 29 42 48 35 26 21 358 353 349 349 356 0 2 358 337 330 337 342 335 309 271 270 274 257 183 167 164 152 182 163 130 162 113 101 166 225 197 141 107 64 90 95 87 80 61 25 12 20 37 41 14 1
20 20 23 25 23 23 22 24 28 27 29 32 33 38 41 38 43 51 57 83 62 25 27 20 13 22 26 21 16 17 17 14 16 23 23 22 35 35 19 9 0 355 359 358 3 28 60 34 22 357 342 1 7 336 293 265 239 233 245 233 178 150 142 172 204 190 152 149 164 183 187 173 19 343 321 77 81 104 110 98 39 351 3 33 43 10 4
20 21 23 25 24 24 23 23 25 24 27 31 32 38 43 38 42 56 59 81 106 36 34 32 10 16 25 19 17 19 15 8 3 2 11 20 23 17 15 18 18 16 12 3 4 42 64 58 60 31 351 17 332 288 303 296 256 221 289 273 180 155 163 177 196 215 112 121 157 166 174 208 244 284 287 312 336 194 144 120 76 337 351 28 49 27 8
18 20 23 24 25 24 22 23 23 20 24 27 30 38 45 43 52 73 69 67 94 46 29 35 41 39 33 24 26 26 12 356 353 343 358 9 5 2 15 27 28 23 17 8 6 49 44 57 104 123 224 214 221 266 322 339 324 347 2 14 36 49 97 141 154 171 114 123 159 180 184 209 236 265 293 324 337 346 116 107 74 334 340 9 40 41 27
16 19 22 23 25 26 23 21 20 19 23 25 27 34 44 48 56 77 81 75 79 71 43 42 47 46 39 20 21 24 11 351 353 15 3 336 340 352 5 16 22 23 24 21 7 34 39 30 44 73 210 297 0 299 337 0 339 336 350 8 22 23 26 65 103 147 148 134 145 152 156 190 257 270 300 328 338 9 95 125 228 339 5 26 50 54 42
15 18 21 23 25 26 26 23 19 18 22 26 27 33 45 54 58 73 86 83 81 71 54 50 51 51 53 52 42 37 23 5 0 5 343 316 336 343 344 357 18 22 24 33 35 21 34 21 10 49 64 327 13 105 8 13 351 337 354 7 10 12 9 36 91 104 59 94 103 83 117 273 287 295 327 337 345 52 92 181 220 32 43 50 56 55 43
13 17 20 23 25 26 27 26 21 19 19 22 30 40 48 53 57 69 81 83 86 85 66 57 54 50 51 60 60 52 37 32 36 36 2 329 340 335 330 12 31 15 11 31 45 29 35 8 336 44 49 344 348 88 36 22 358 348 23 38 21 13 359 12 51 28 6 70 99 105 109 324 296 309 357 7 28 104 107 153 98 56 50 45 40 42 35
9 15 19 21 24 26 26 24 22 20 18 21 34 49 53 53 56 65 76 85 95 97 81 62 51 45 47 56 55 44 35 37 40 46 103 311 339 345 357 50 12 360 8 31 25 20 39 354 317 14 36 343 330 43 14 24 29 22 46 75 34 10 15 20 14 357 11 54 63 98 113 342 331 333 6 21 70 124 91 104 74 49 42 32 26 31 28
6 11 17 20 21 24 24 22 21 24 25 27 35 48 59 65 68 70 78 87 92 93 84 64 49 50 57 55 45 40 43 47 45 41 44 16 6 20 98 229 340 350 12 25 20 5 15 333 303 355 13 339 354 14 348 12 26 5 15 93 69 8 48 78 341 337 43 59 42 99 99 40 54 83 91 75 87 74 58 65 51 35 31 23 19 23 17
5 9 14 18 20 21 23 22 23 31 33 31 36 45 52 68 78 80 86 86 83 86 89 78 63 59 57 46 39 43 49 50 45 39 39 39 40 52 65 30 21 30 22 33 63 335 342 340 304 0 21 3 3 5 8 63 72 341 355 70 72 358 101 118 95 60 84 87 59 89 93 76 76 87 94 87 77 61 52 52 39 28 23 14 12 11 358
5 8 12 16 18 20 22 22 28 41 38 31 34 36 34 43 71 87 98 99 94 94 90 83 74 55 44 44 45 40 40 44 42 36 38 44 48 49 43 34 36 40 39 46 55 279 279 220 241 43 57 15 13 28 23 44 122 340 11 65 60 15 53 92 106 115 99 64 43 73 94 90 85 85 78 69 64 55 48 46 35 27 18 359 350 342 333
3 6 10 14 15 17 19 22 32 54 51 39 34 28 28 37 49 68 101 103 100 96 76 66 73 55 40 48 56 49 43 41 34 30 31 35 37 38 39 40 38 36 38 34 14 354 358 271 292 65 82 8 47 83 47 21 51 65 40 22 343 10 35 62 93 115 106 68 10 37 98 93 79 72 63 53 50 48 41 34 20 7 351 330 325 321 317
2 4 9 13 14 15 18 23 35 61 61 38 28 23 32 41 42 46 72 71 69 83 80 71 74 64 45 39 47 60 61 34 23 28 29 25 32 36 39 51 48 31 23 17 6 14 30 350 357 65 77 12 36 79 111 20 267 129 75 319 283 350 32 54 67 59 108 159 247 335 112 108 61 45 42 36 31 25 16 8 355 344 334 321 317 316 313
-0 1 6 11 13 14 15 20 35 58 58 31 26 25 30 36 37 41 53 54 58 71 79 79 59 50 41 28 25 38 65 15 19 35 38 18 23 31 37 54 55 31 20 16 9 17 32 40 74 89 95 20 34 114 175 247 304 101 107 283 280 67 53 71 101 61 67 159 331 356 46 156 24 22 27 21 13 9 6 360 348 338 335 326 320 319 318
358 -0 6 11 10 10 12 14 24 42 50 50 41 28 29 34 34 33 35 37 51 72 59 12 19 28 26 14 14 17 15 355 15 30 29 10 3 15 25 41 43 23 23 24 21 29 37 30 44 136 213 309 351 32 213 249 61 78 35 327 359 71 91 66 88 70 25 233 264 14 65 237 319 354 8 6 358 351 348 347 343 339 335 327 321 318 318
356 359 6 10 6 3 4 5 8 17 40 51 45 30 35 38 33 25 26 33 44 69 17 313 319 341 347 352 15 23 16 3 21 22 13 8 9 8 357 339 324 328 344 358 4 20 40 16 339 245 235 10 9 336 324 354 61 59 0 351 45 97 152 146 131 159 197 207 200 166 196 243 299 341 354 350 337 328 333 338 336 332 329 323 320 319 318
352 357 6 9 2 356 355 359 4 7 22 42 40 45 56 43 30 18 21 33 35 31 14 335 316 325 327 329 8 30 9 355 22 19 1 6 30 81 318 323 315 301 301 311 309 319 326 300 294 295 294 104 97 331 331 27 68 34 248 102 92 94 102 109 128 154 165 159 164 264 265 271 324 334 329 324 318 317 324 329 325 323 323 318 316 316 315
346 355 5 4 357 353 356 4 17 29 44 50 46 78 91 36 20 10 12 21 15 9 11 358 318 313 275 271 310 17 19 5 14 12 344 343 355 349 325 324 312 266 284 279 251 312 324 296 303 308 258 207 159 107 139 108 103 228 182 123 109 96 88 93 107 116 126 148 265 318 301 300 313 309 305 311 315 316 319 320 317 317 316 313 312 314 316
341 352 4 4 359 359 11 37 42 49 62 59 51 65 70 21 12 19 15 3 352 351 354 337 305 307 276 249 253 321 350 338 339 342 317 301 301 300 309 327 347 190 272 277 229 205 283 261 290 309 241 198 173 126 143 128 91 247 145 126 118 105 99 107 104 88 113 274 309 313 301 305 317 312 306 312 317 316 313 309 307 308 309 310 314 317 320
331 350 7 12 8 10 64 94 66 61 71 59 45 47 40 17 18 30 10 344 334 339 348 345 307 297 306 251 215 247 330 333 340 346 328 295 301 312 312 337 4 294 267 279 234 230 266 244 250 273 219 189 182 115 117 127 162 185 159 141 133 125 122 126 112 47 327 322 327 319 306 320 329 322 315 316 316 309 301 299 303 308 313 317 318 317 318
306 339 16 27 27 42 109 119 80 65 67 51 36 30 21 11 8 5 350 338 335 339 343 351 284 271 309 76 140 74 357 356 358 353 341 295 305 319 315 323 321 274 251 253 230 214 240 239 237 242 204 196 186 113 99 200 179 164 160 160 160 155 149 146 148 154 177 343 340 324 313 318 322 320 316 310 302 297 298 303 312 324 327 322 316 315 318
237 216 128 59 42 52 107 136 105 73 35 20 20 14 3 355 346 337 326 321 332 336 316 299 279 285 318 23 123 30 0 358 356 349 343 319 304 302 293 310 322 259 223 239 234 216 230 237 221 177 199 203 173 104 293 219 169 157 162 173 174 170 174 181 191 216 268 303 305 303 306 307 309 313 306 284 286 309 314 317 328 336 333 323 317 320 324
205 195 190 180 34 27 25 189 150 356 334 339 342 338 334 330 323 311 303 310 329 335 300 305 313 326 358 350 318 341 355 5 5 347 338 335 323 301 282 301 336 237 224 236 229 221 227 209 184 182 205 181 156 215 235 191 166 161 167 174 176 181 190 192 204 249 291 308 302 296 293 287 292 298 265 236 287 311 310 313 322 325 326 330 333 331 331
191 195 199 200 7 4 329 251 264 320 333 328 320 316 314 309 297 280 280 294 300 276 276 322 319 246 131 293 274 312 350 13 10 350 342 344 337 315 300 314 300 239 227 221 227 258 237 184 175 230 259 172 191 227 205 180 174 175 177 180 183 189 203 238 260 276 301 311 297 272 266 277 285 265 217 236 298 312 302 303 312 314 319 333 342 344 347
183 176 174 202 348 4 9 292 262 307 327 324 319 315 305 285 270 270 270 273 274 263 259 288 285 249 229 227 264 318 352 3 357 351 349 347 333 316 300 279 265 277 286 266 274 279 226 182 171 231 255 223 238 249 224 198 191 190 183 180 186 199 235 273 283 290 303 302 276 246 257 274 264 218 212 244 302 313 303 303 318 325 325 332 341 349 355
173 170 210 313 336 13 51 226 253 295 321 324 322 317 290 254 266 273 257 249 256 253 236 225 250 254 241 230 260 303 333 353 3 8 3 352 340 326 325 342 308 332 329 290 278 269 231 201 174 196 241 253 255 247 221 197 189 186 179 177 192 223 246 257 272 288 292 281 262 253 256 240 209 198 215 253 294 305 306 313 321 323 327 332 337 345 353
180 228 289 312 327 263 243 271 288 306 316 317 314 308 284 254 262 266 232 208 224 234 216 213 243 250 238 213 167 163 310 0 13 23 343 343 341 322 344 0 352 0 334 302 277 203 328 316 293 206 267 293 226 172 170 167 167 173 182 191 207 230 244 253 275 289 290 281 272 267 240 207 192 193 228 268 289 300 309 316 314 317 327 332 335 341 350
249 285 300 305 299 283 279 285 297 311 317 311 298 299 291 240 223 239 222 201 226 223 205 210 238 243 231 213 179 151 118 32 39 204 287 300 284 285 0 0 339 353 318 281 273 140 117 305 303 285 285 262 171 159 164 174 179 182 190 204 223 237 241 261 284 294 292 278 258 208 174 181 191 209 249 280 302 313 316 317 320 327 334 335 335 340 346
355 349 332 311 305 302 294 286 283 294 310 305 293 305 275 234 245 252 229 243 285 225 200 202 219 206 188 189 191 162 129 98 104 264 291 273 263 324 319 274 318 19 230 264 302 12 86 256 295 293 252 208 182 172 174 184 187 187 197 213 230 231 233 261 292 300 283 244 211 181 171 186 207 227 246 271 306 319 318 318 327 333 334 335 337 340 341
17 13 3 338 327 325 317 297 265 238 258 345 333 312 279 250 272 276 237 236 272 243 200 196 180 144 141 139 129 124 122 123 201 351 40 287 268 252 219 258 351 32 239 270 313 5 16 285 278 279 246 204 187 182 183 187 189 197 208 210 213 226 238 265 299 295 228 193 189 194 202 209 215 230 249 265 308 327 323 320 330 333 330 329 332 333 334
12 18 16 6 1 0 345 314 205 184 146 56 62 316 314 307 290 284 243 234 262 286 178 171 153 128 116 96 82 114 142 172 223 192 161 224 269 301 9 345 303 233 256 294 337 348 274 239 229 267 263 212 193 189 188 190 195 203 206 203 211 236 250 269 296 263 200 187 193 212 224 215 209 226 271 269 303 336 328 322 330 334 332 332 335 336 336
7 18 13 357 350 3 357 314 180 169 139 23 154 193 317 307 283 282 299 298 309 345 87 136 145 134 124 106 91 132 159 155 102 177 234 240 261 34 326 258 242 248 288 325 326 226 251 231 237 289 289 215 198 194 191 193 198 201 197 199 217 246 253 258 263 229 199 197 207 219 220 208 201 206 238 249 286 323 314 322 335 338 337 343 352 1 3
25 25 16 350 319 336 0 279 222 196 226 224 187 176 199 254 259 292 320 311 311 52 100 111 117 121 128 139 145 168 170 151 121 237 230 196 37 273 241 240 246 271 304 312 252 274 286 252 265 299 287 212 198 197 198 200 205 203 198 204 224 239 242 245 245 226 208 206 214 219 215 203 200 213 235 248 307 307 295 314 337 344 342 348 2 19 26
43 22 14 353 300 308 58 213 294 240 212 246 308 315 301 288 289 303 306 298 294 63 81 87 99 111 127 137 154 212 193 170 163 212 195 157 273 251 235 246 285 306 329 292 272 271 250 241 275 305 289 214 197 198 205 209 207 206 208 214 223 229 234 243 246 239 225 208 206 213 214 207 206 226 245 249 278 311 302 314 334 345 348 353 1 16 33
48 21 22 24 294 298 229 199 254 300 312 322 327 325 321 321 326 333 338 341 324 294 302 296 110 82 177 137 144 246 214 175 158 213 191 167 245 256 237 248 253 202 197 260 258 246 245 260 288 316 310 227 201 199 205 207 203 205 215 222 219 221 230 243 247 243 236 223 215 217 221 218 216 229 241 236 236 281 321 327 330 339 352 360 1 11 33
27 10 20 117 268 255 227 280 317 317 314 317 321 324 329 336 342 347 351 351 335 293 264 215 144 101 243 178 182 235 226 176 180 226 196 158 218 290 275 260 246 217 214 228 225 227 254 274 302 334 328 270 224 208 203 202 201 207 218 223 217 216 227 244 248 242 235 230 227 230 234 229 216 212 225 233 234 254 308 333 334 339 352 1 5 17 39
350 314 256 256 272 263 267 294 312 309 303 306 315 326 335 337 333 330 329 327 317 290 265 246 199 171 197 187 183 235 222 180 180 224 199 171 186 238 195 212 261 268 251 226 230 246 264 289 326 340 322 280 241 218 206 202 205 214 222 225 225 227 237 247 249 241 234 231 230 233 241 242 224 208 215 233 236 244 279 318 328 332 345 3 29 44 52
263 248 235 234 254 273 281 293 302 299 298 306 312 318 321 322 322 330 340 334 302 268 252 234 216 212 224 227 51 305 237 204 186 201 219 206 201 217 228 230 237 238 237 246 264 284 308 331 336 327 312 287 252 226 211 206 211 221 223 220 224 235 246 252 251 244 241 242 238 234 239 247 236 216 214 233 243 245 262 291 305 317 341 23 67 65 59
232 236 233 229 231 244 262 273 272 273 284 293 297 300 302 302 307 320 334 334 316 291 260 222 205 209 230 171 184 208 209 178 165 190 233 223 193 189 236 232 220 233 258 271 287 311 331 332 324 319 316 298 252 223 213 215 225 226 221 218 222 230 240 250 255 253 251 254 250 240 240 244 236 218 215 236 248 243 244 255 267 283 305 356 83 73 64
214 234 248 247 242 244 251 259 263 267 272 278 283 288 292 295 301 308 313 312 298 270 258 259 259 156 177 208 222 217 197 170 194 218 232 227 201 200 222 237 246 263 277 287 303 326 328 317 306 304 307 292 248 222 219 228 231 225 221 223 223 222 227 238 246 250 252 253 253 249 247 244 234 223 225 240 242 233 230 237 250 260 260 226 119 85 69